Weather History for Logan, UT

Change the Weather History Date:

Sunday, January 6, 2013

  Actual Average Record
Temperature  
Mean Temperature 0 °F -  
Max Temperature 10 °F 29 °F 52 °F (1983)
Min Temperature -9 °F 8 °F -24 °F (1973)
Degree Days  
Heating Degree Days 64    
Moisture  
Dew Point -7 °F    
Average Humidity 82    
Maximum Humidity 92    
Minimum Humidity 71    
Precipitation  
Precipitation 0.00 in - - ()
Sea Level Pressure  
Sea Level Pressure 30.30 in    
Wind  
Wind Speed 1 mph (WSW)    
Max Wind Speed 8 mph    
Max Gust Speed -    
Visibility 2 miles    
Events Fog    
Averages and records for this station are not official NWS values.
T = Trace of Precipitation, MM = Missing Value Source: NWS Daily Summary

Daily Weather History Graph

Daily Weather History Graph

Search for Another Location

Airport:

Trip Planner

Search our weather history database for the weather conditions in past years. The results will help you decide how hot, cold, wet, or windy it might be!

Date:

Astronomy

Jan. 06, 2013 Rise Set
Actual Time 7:54 AM MST 5:12 PM MST
Civil Twilight 7:23 AM MST 5:43 PM MST
Nautical Twilight 6:48 AM MST 6:18 PM MST
Astronomical Twilight 6:15 AM MST 6:52 PM MST
Moon 2:11 AM MST (1/6) 12:43 PM MST (1/6)
Length of Visible Light 10h 20m
Length of Day
9h 17m
Waning Crescent, 32% of the Moon is Illuminated
Jan 6
Waning Crescent
Jan 11
New
Jan 18
First Quarter
Jan 26
Full
Feb 3
Last Quarter

Hourly Weather History & Observations

Time (MST) Temp. Windchill Dew Point Humidity Pressure Visibility Wind Dir Wind Speed Gust Speed Precip Events Conditions
12:00 AM -5.8 °F - -9.4 °F 84% 30.32 in 3.0 mi Calm Calm - N/A   Mostly Cloudy
12:02 AM -4.0 °F - -7.6 °F 85% 30.32 in 2.5 mi Calm Calm - N/A   Scattered Clouds
12:32 AM -4.0 °F - -7.6 °F 85% 30.31 in 1.8 mi Calm Calm - N/A   Clear
12:42 AM -7.6 °F - -9.4 °F 92% 30.31 in 0.8 mi Calm Calm - N/A   Mist
12:51 AM -5.1 °F - -9.9 °F 80% 30.59 in 0.8 mi Calm Calm - N/A   Haze
1:19 AM -7.6 °F - -9.4 °F 92% 30.30 in 0.2 mi Calm Calm - N/A Fog Light Freezing Fog
1:43 AM -5.8 °F - -9.4 °F 84% 30.29 in 0.2 mi Calm Calm - N/A Fog Light Freezing Fog
1:51 AM -8.0 °F - -11.0 °F 86% 30.58 in 0.2 mi Calm Calm - N/A Fog Light Freezing Fog
2:51 AM -7.1 °F - -9.9 °F 87% 30.56 in 0.2 mi Calm Calm - N/A Fog Light Freezing Fog
3:02 AM -5.8 °F - -9.4 °F 84% 30.29 in 1.5 mi Calm Calm - N/A   Overcast
3:10 AM -5.8 °F - -11.2 °F 77% 30.28 in 0.2 mi Calm Calm - N/A   Haze
3:30 AM -5.8 °F - -9.4 °F 84% 30.27 in 1.2 mi Calm Calm - N/A   Scattered Clouds
3:44 AM -4.0 °F -14.6 °F -7.6 °F 85% 30.26 in 2.0 mi SW 4.6 mph - N/A   Partly Cloudy
3:51 AM -4.0 °F -14.6 °F -8.0 °F 83% 30.53 in 2.0 mi SW 4.6 mph - N/A   Clear
4:15 AM -5.8 °F - -11.2 °F 77% 30.26 in 3.0 mi Calm Calm - N/A   Haze
4:21 AM -7.6 °F - -11.2 °F 84% 30.26 in 2.5 mi Calm Calm - N/A   Haze
4:32 AM -7.6 °F - -13.0 °F 77% 30.25 in 2.5 mi Calm Calm - N/A   Haze
4:51 AM -6.0 °F - -11.0 °F 79% 30.53 in 1.8 mi Calm Calm - N/A   Haze
5:05 AM -5.8 °F - -11.2 °F 77% 30.24 in 1.5 mi Calm Calm - N/A   Haze
5:22 AM -5.8 °F - -9.4 °F 84% 30.24 in 1.5 mi Calm Calm - N/A   Overcast
5:43 AM -4.0 °F - -9.4 °F 78% 30.24 in 1.8 mi Calm Calm - N/A   Haze
5:49 AM -4.0 °F - -9.4 °F 78% 30.24 in 2.0 mi Calm Calm - N/A   Haze
5:51 AM -4.0 °F - -9.0 °F 79% 30.54 in 2.5 mi Calm Calm - N/A   Haze
6:27 AM -2.2 °F - -7.6 °F 78% 30.23 in 3.0 mi Calm Calm - N/A   Haze
6:39 AM -5.8 °F -14.5 °F -11.2 °F 77% 30.23 in 2.5 mi West 3.5 mph - N/A   Haze
6:51 AM -6.0 °F -14.7 °F -9.9 °F 83% 30.54 in 3.0 mi West 3.5 mph - N/A   Clear
7:18 AM -5.8 °F - -11.2 °F 77% 30.24 in 4.0 mi Calm Calm - N/A   Haze
7:31 AM -5.8 °F - -9.4 °F 84% 30.23 in 3.0 mi Calm Calm - N/A   Haze
7:38 AM -5.8 °F - -9.4 °F 84% 30.23 in 4.0 mi Calm Calm - N/A   Haze
7:51 AM -5.1 °F - -9.9 °F 80% 30.53 in 3.0 mi Calm Calm - N/A   Haze
8:00 AM -5.8 °F - -9.4 °F 84% 30.23 in 3.0 mi Calm Calm - N/A   Mostly Cloudy
8:10 AM -5.8 °F - -11.2 °F 77% 30.22 in 1.8 mi Calm Calm - N/A   Haze
8:18 AM -5.8 °F - -9.4 °F 84% 30.22 in 0.5 mi Calm Calm - N/A Fog Light Freezing Fog
8:30 AM -7.6 °F - -11.2 °F 84% 30.22 in 0.2 mi Calm Calm - N/A Fog Light Freezing Fog
8:43 AM -7.6 °F -16.5 °F -14.8 °F 71% 30.23 in 2.0 mi NNW 3.5 mph - N/A   Haze
8:51 AM -9.0 °F -18.2 °F -13.0 °F 83% 30.54 in 2.0 mi North 3.5 mph - N/A   Mostly Cloudy
9:00 AM -7.6 °F -18.8 °F -11.2 °F 84% 30.22 in 1.8 mi North 4.6 mph - N/A   Haze
9:13 AM -5.8 °F - -9.4 °F 84% 30.22 in 2.0 mi Calm Calm - N/A   Scattered Clouds
10:41 AM 1.4 °F -9.9 °F -4.0 °F 78% 30.23 in 2.0 mi SW 5.8 mph - N/A   Haze
10:47 AM 1.4 °F -8.3 °F -4.0 °F 78% 30.23 in 1.8 mi SSW 4.6 mph - N/A   Haze
10:48 AM 1.0 °F -6.7 °F -2.9 °F 83% 30.51 in 1.8 mi SSW 3.5 mph - N/A   Mostly Cloudy
11:10 AM 1.4 °F -9.9 °F -2.2 °F 85% 30.21 in 2.0 mi South 5.8 mph - N/A   Haze
11:21 AM 3.2 °F - -0.4 °F 85% 30.19 in 2.5 mi Calm Calm - N/A   Scattered Clouds
11:51 AM 3.9 °F - -0.0 °F 84% 30.46 in 2.5 mi Calm Calm - N/A   Clear
12:51 PM 5.0 °F -8.1 °F -0.9 °F 76% 30.40 in 2.5 mi WNW 8.1 mph - N/A   Haze
1:40 PM 6.8 °F - 1.4 °F 79% 30.11 in 3.0 mi Calm Calm - N/A   Haze
1:51 PM 9.0 °F - 1.9 °F 73% 30.36 in 3.0 mi Calm Calm - N/A   Haze
2:24 PM 10.4 °F -0.4 °F 3.2 °F 73% 30.10 in 2.5 mi SSW 6.9 mph - N/A   Haze
2:51 PM 9.0 °F 0.6 °F 3.0 °F 77% 30.36 in 2.5 mi WSW 4.6 mph - N/A   Haze
3:51 PM 9.0 °F 2.4 °F 3.0 °F 77% 30.35 in 2.5 mi North 3.5 mph - N/A   Haze
4:51 PM 8.1 °F - 1.9 °F 76% 30.38 in 2.5 mi Calm Calm - N/A   Haze
5:36 PM 3.2 °F -7.8 °F -0.4 °F 85% 30.12 in 3.0 mi West 5.8 mph - N/A   Clear
5:51 PM 1.0 °F -6.7 °F -2.0 °F 87% 30.40 in 3.0 mi NW 3.5 mph - N/A   Clear
6:51 PM 1.0 °F - -2.9 °F 83% 30.41 in 3.0 mi Calm Calm - N/A   Clear
7:29 PM -0.4 °F - -5.8 °F 78% 30.13 in 2.0 mi Calm Calm - N/A   Clear
7:46 PM -2.2 °F - -5.8 °F 85% 30.14 in 1.8 mi Calm Calm - N/A   Clear
7:51 PM -2.9 °F - -6.0 °F 87% 30.43 in 1.5 mi Calm Calm - N/A   Clear
8:05 PM -2.2 °F -10.4 °F -7.6 °F 78% 30.14 in 2.5 mi NE 3.5 mph - N/A   Clear
8:11 PM -2.2 °F - -7.6 °F 78% 30.14 in 3.0 mi Calm Calm - N/A   Clear
8:28 PM 1.4 °F - -2.2 °F 85% 30.14 in 2.5 mi Calm Calm - N/A   Clear
8:39 PM -0.4 °F -10.4 °F -5.8 °F 78% 30.15 in 1.8 mi SE 4.6 mph - N/A   Clear
8:46 PM -2.2 °F -14.2 °F -5.8 °F 85% 30.15 in 2.0 mi WSW 5.8 mph - N/A   Clear
8:51 PM -0.0 °F -9.9 °F -2.9 °F 88% 30.45 in 1.8 mi SW 4.6 mph - N/A   Clear
9:38 PM -5.8 °F -16.7 °F -9.4 °F 84% 30.16 in 2.0 mi West 4.6 mph - N/A   Clear
9:51 PM -8.0 °F -21.0 °F -11.0 °F 86% 30.47 in 2.5 mi North 5.8 mph - N/A   Clear
10:18 PM -5.8 °F -14.5 °F -9.4 °F 84% 30.16 in 3.0 mi SE 3.5 mph - N/A   Clear
10:51 PM -2.0 °F -10.1 °F -6.0 °F 83% 30.44 in 3.0 mi Variable 3.5 mph - N/A   Clear
11:36 PM -7.6 °F - -11.2 °F 84% 30.16 in 2.0 mi Calm Calm - N/A   Clear
11:51 PM -6.0 °F -20.1 °F -9.9 °F 83% 30.43 in 3.0 mi SSE 6.9 mph - N/A   Clear